Location: Sungai Behotor
(2.2500°N, 113.9333°E)
Time: 18:26:22
(UTC+00:00)

Daily predictions for brighter satellites

Satellite Brightness Start Highest point End
(mag) Time Altitude Azimuth Time Altitude Azimuth Time Altitude Azimuth
Cosmos 1812 Rocket 3.6 12:00:46 10° N 12:05:06 55° E 12:05:06 55° E
Fermi 3.5 12:02:29 10° WSW 12:06:32 85° SSE 12:06:43 80° E
IRS-P2 Rocket 4.5 12:06:01 31° SSE 12:08:38 83° ENE 12:13:56 10° N
USA 186 4.3 12:11:27 15° NNE 12:11:27 15° NNE 12:12:05 10° N
CSL-04 Debris 4.1 12:13:25 37° SSE 12:15:39 87° ENE 12:21:07 10° NNW
ERS-2 4.2 12:14:08 10° NNE 12:15:06 18° NNE 12:15:06 18° NNE
Ariane 3 Deb 3.4 12:07:20 10° W 12:22:17 60° SSW 12:22:56 55° SSE
OAO 3 Rocket 3.3 12:17:38 10° WNW 12:22:27 65° SW 12:22:34 65° SSW
Genesis I 3.8 12:20:26 10° NNW 12:23:46 56° WNW 12:23:46 56° WNW
Cosmos 372 Rocket 3.8 12:19:17 10° N 12:24:27 84° ENE 12:24:35 83° ESE
Cosmos 2034 Rocket 4.3 12:23:26 10° NNW 12:29:40 67° W 12:33:38 24° S
CSL-04 Rocket 4.1 12:35:43 44° SSW 12:37:13 59° WSW 12:42:36 10° NNW
Delta 2 Rocket 3.8 12:31:33 10° WNW 12:37:35 81° SSW 12:37:47 80° S
ARIANE 5 R/B 3.4 12:40:22 10° W 13:18:43 - E 12:43:35 77° SW
ATLAS 2A CENTAUR R/B 4.5 12:38:31 10° WNW 13:04:16 36° N 13:07:32 30° NE
ATLAS 3B CENTAUR R/B 3.1 13:02:22 10° WNW 13:08:33 86° W 13:08:33 86° W
Cosmos 2082 Rocket 4.1 13:06:48 10° SW 13:11:20 25° WNW 13:15:51 10° NNW
CENTAUR R/B 3.8 13:14:50 10° NNW 13:21:06 48° N 13:21:06 48° N
Atlas Centaur 2 4.2 19:38:35 23° E 19:38:35 23° E 19:41:11 10° ESE
BLOCK DM-SL R/B 4.5 19:04:39 10° W 19:38:14 75° NNE 19:43:17 10° E
ARIANE 5 R/B 4.5 19:54:30 37° E 19:54:30 37° E 19:56:33 10° E
GPS 2-04 Rocket1 4.5 20:32:47 26° N 20:32:47 26° N 20:34:58 10° NNE
CZ-4C R/B 4.0 20:24:16 10° N 20:32:26 50° ENE 20:40:40 10° SE
Meteor 2-20 Rocket 4.3 20:27:35 10° N 20:33:44 89° W 20:37:56 22° S
Cosmos 1943 3.9 20:29:22 10° N 20:34:54 54° ENE 20:40:25 10° SSE
Cosmos 1934 Rocket 3.9 20:33:06 33° S 20:36:00 79° E 20:42:06 10° N
Cosmos 1758 3.9 20:36:52 54° E 20:36:52 54° E 20:40:37 10° NNE
Cosmos 1025 Rocket 3.1 20:33:42 10° N 20:37:46 73° NE 20:37:46 73° NE
Cosmos 2278 Rocket 3.2 20:37:53 17° S 20:41:51 44° ESE 20:47:10 10° NE
Cosmos 1727 Rocket 3.9 20:39:26 10° N 20:45:42 78° W 20:52:02 10° S
Cosmos 968 Rocket 3.7 20:43:34 33° S 20:45:47 66° ESE 20:50:50 10° NNE
SeaSat 1 3.1 20:43:02 10° NE 20:47:48 51° ESE 20:50:49 22° S
ATLAS 2A CENTAUR R/B 4.0 20:46:26 44° WSW 20:48:25 59° SSW 21:11:45 10° ESE
Cosmos 44 4.5 20:44:16 10° N 20:48:42 40° ENE 20:52:54 10° SE
ARIANE 5 DEB (SYLDA) 2.1 20:53:29 67° NNE 20:53:29 67° NNE 20:55:45 10° ENE
FUSE 3.8 20:54:25 43° WNW 20:56:14 80° SSW 21:01:38 10° ESE
MOS 1 Rocket 3.6 20:51:48 10° SSE 20:56:26 69° ENE 21:01:22 10° N
ARIANE DEB (SPELDA) 3.2 20:56:28 38° WSW 20:58:20 52° SSW 21:01:21 10° ESE
ISO 2.8 20:56:51 35° WSW 20:59:14 62° S 21:02:51 10° E
Cosmos 1346 Rocket 3.1 20:55:45 10° N 20:59:35 62° E 21:03:26 10° SSE
Ariane H10+ 3.8 21:00:34 31° SSW 21:01:59 39° SSE 21:13:52 10° E
SL-14 R/B 3.2 20:58:54 10° NNW 21:02:46 60° W 21:03:20 53° SW
Meteor 1-24 Rocket 4.3 20:58:48 10° N 21:04:24 58° E 21:09:48 10° SSE
Envisat 3.9 20:59:40 10° NNE 21:04:31 48° ESE 21:09:24 10° S
H-2A R/B 3.5 21:01:35 10° NNE 21:05:08 48° ESE 21:08:39 10° S
Ariane H10-3 2.7 21:05:59 38° NW 21:06:58 62° N 21:14:26 10° E
USA 290 3.6 21:05:33 10° N 21:08:37 41° ENE 21:11:42 10° SSE
Cosmos 1607 4.2 21:07:52 29° SW 21:10:58 52° WNW 21:17:13 10° N
Meteor 2-5 Rocket 3.7 21:06:54 10° N 21:12:41 85° W 21:18:22 10° S
ADEOS 3.6 21:09:26 10° NNE 21:14:39 84° ESE 21:19:53 10° S
BLOCK DM-SL R/B 3.6 21:09:05 23° W 21:15:07 74° S 21:19:28 10° E
Orbus 7S 4.1 21:21:22 27° WNW 21:22:05 33° NNW 21:25:13 10° NE
Cosmos 1536 Rocket 3.5 21:17:58 10° NNW 21:22:17 60° W 21:26:40 10° S
Cosmos 1603 4.0 21:17:30 10° NW 21:22:47 42° WSW 21:28:08 10° S
Atlas Centaur 2 2.7 21:21:16 21° W 21:24:43 44° SSW 21:31:23 10° SE
Cosmos 2123 Rocket 4.2 21:19:13 10° N 21:25:20 72° E 21:31:30 10° S
GEOS 3 Rocket 3.9 21:21:56 10° SE 21:27:15 73° ENE 21:32:35 10° NNW
CZ-4B R/B 4.3 21:23:50 10° N 21:27:56 47° W 21:31:56 11° SSW
SJ-12 4.4 21:25:23 10° N 21:29:14 40° WNW 21:32:22 15° SW
Meteor PRIRODA 4.4 21:28:26 10° NNE 21:31:57 51° ESE 21:35:27 10° S
Cosmos 405 2.8 21:31:26 10° S 21:34:52 89° W 21:38:17 10° N
USA 81 4.4 21:32:51 10° S 21:38:05 69° E 21:43:18 10° N
Meteor 1-16 Rocket 4.2 21:34:27 10° SSW 21:39:59 63° W 21:45:20 10° N
YAOGAN 6 3.1 21:40:37 10° N 21:44:03 40° W 21:47:32 10° SSW
Sea Lan Dem Rocket 3.0 21:33:44 11° W 21:45:04 77° S 21:48:49 10° E
Ariane H10+ 4.3 21:02:00 10° W 21:45:39 82° N 21:51:02 10° E
ARIANE 5 R/B 2.9 21:47:52 13° WSW 21:50:04 53° S 21:58:55 10° E
Cosmos 1943 Rocket 4.2 21:46:29 10° SSE 21:51:09 28° ESE 21:55:46 10° NE
CZ-2C R/B 3.8 21:50:52 10° SSE 21:51:28 10° SE 21:52:04 10° SE
Cosmos 1763 Rocket 3.9 21:47:22 10° NW 21:52:13 39° WSW 21:57:01 10° S
IRAS Rocket 4.2 21:49:23 10° S 21:54:57 73° WSW 22:00:26 10° NNW
Cosmos 1441 Rocket 3.3 21:53:38 10° N 21:57:34 89° W 22:01:33 10° S
Landsat 5 3.4 21:54:14 10° S 21:58:15 71° WSW 22:02:26 10° NNW
Meteosat 1 Rocket2 4.0 21:55:21 10° W 21:58:44 28° SSW 22:03:00 10° SE
SL-4 R/B 3.6 21:57:13 10° S 22:00:52 34° SE 22:04:46 10° ENE
Cosmos 1300 2.8 21:59:42 10° S 22:03:30 82° E 22:07:17 10° N
Cosmos 1953 3.8 22:01:51 10° SW 22:04:47 19° W 22:07:43 10° NW
ARIANE 5 R/B 4.0 21:39:57 10° W 22:20:15 72° S 22:25:58 10° E
